Preview of NWS' New Version of Forecast
This preview is not operational and should not be used for support decisions.

Regional Weather Roundup (RWR)

Issued by National Weather Service (NWS)

                            
000
ASUS43 KDTX 212310
RWRMI 
MICHIGAN HOURLY REGIONAL WEATHER ROUNDUP
NATIONAL WEATHER SERVICE DETROIT/PONTIAC MI
700 PM EDT SUN APR 21 2019

NOTE: "FAIR" INDICATES FEW OR NO CLOUDS BELOW 12,000 FEET WITH NO
SIGNIFICANT WEATHER AND/OR OBSTRUCTION TO VISIBILITY.

MIZ047>049-052>055-059>063-066>070-074>076-081>083-220000-
SOUTHEAST LOWER MICHIGAN
  
CITY           SKY/WX    TMP DP  RH WIND       PRES   REMARKS
ADRIAN         FAIR      64  40  41 SW8       30.09R                  
ALMA           FAIR      70  31  23 S8        30.04S                  
ANN ARBOR      FAIR      65  44  46 S9        30.07R                  
BAD AXE        FAIR      61  33  34 SE6       30.08R                  
CARO           FAIR      63  38  39 SE7       30.07S                  
DETROIT CITY   CLOUDY    58  42  55 S7        30.10R                  
DETROIT        PTSUNNY   60  42  51 S10       30.10R                  
FLINT          CLOUDY    63  39  41 S6        30.07R                  
GROSSE ILE     PTSUNNY   51  46  83 S5        30.10R                  
HILLSDALE      FAIR      66  37  33 S10       30.07S                  
HOWELL         FAIR      65  23  20 SW5       30.06S                  

CITY           SKY/WX    TMP DP  RH WIND       PRES   REMARKS
JACKSON        FAIR      67  32  27 S7        30.07R                  
LAMBERTVILLE   FAIR      64  47  53 SW6       30.09R                  
LANSING        FAIR      70  34  26 SW6       30.05R                  
LAPEER         FAIR      63  37  38 CALM      30.08S                  
MASON          FAIR      69  36  29 SE6       30.06S                  
MONROE         FAIR      60  49  68 S8        30.09S                  
MT. CLEMENS    PTSUNNY   55  52  88 S7        30.08S                  
PONTIAC        PTSUNNY   65  31  28 E5        30.06R                  
PORT HOPE        N/A     48  40  73 SE5       30.08R                  
PORT HURON     CLOUDY    59  39  47 SW3       30.11R                  
TRI CITIES     FAIR      66  41  40 SE8       30.04F                  
MIDLAND        FAIR      71  34  25 S9        30.03R                  
TROY           CLOUDY    61  40  46 SE8       30.11R                  
SAGINAW HB     FAIR      66  37  34 S8        30.05S                  
$$
MIZ043>046-050>051-056>058-064>065-071>073-077>080-220000-
SOUTHWEST LOWER MICHIGAN
  
CITY           SKY/WX    TMP DP  RH WIND       PRES   REMARKS
BATTLE CREEK   FAIR      69  34  27 S7        30.05S                  
BENTON HARBOR  FAIR      73  31  21 S10       30.01S                  
BIG RAPIDS     FAIR      71  32  24 SW7       30.00S                  
COLDWATER      FAIR      68  35  30 SW8       30.07S                  
FREMONT        FAIR      71  23  16 SW9       30.00S                  
HOLLAND        FAIR      71  33  24 SW7       30.01F                  
GRAND RAPIDS   FAIR      71  36  27 S9        30.02S                  
IONIA          FAIR      71  23  16 S9        30.02F                  
KALAMAZOO      FAIR      69  36  29 S12       30.04F                  
LUDINGTON      FAIR      69  30  23 SW12      29.99R                  
MARSHALL       FAIR      68  36  30 S5        30.06R                  
MOUNT PLEASANT FAIR      70  35  27 S10G16    30.02S                  
MUSKEGON       FAIR      69  27  20 S10       30.01F                  
SOUTH HAVEN    FAIR      73  23  15 S7        30.01S                  
$$
MIZ016>042-220000-
NORTHERN LOWER MICHIGAN
  
CITY           SKY/WX    TMP DP  RH WIND       PRES   REMARKS
ALPENA         FAIR      54  17  23 E12       30.06R                  
BEAVER ISLAND  CLOUDY    54  30  40 NE7       30.05R                  
BELLAIRE       PTSUNNY   67  34  29 NW8       29.98R                  
CADILLAC       FAIR      73  32  22 S9        29.98R                  
CHARLEVOIX     FAIR      46  32  58 N6        30.05R                  
FRANKFORT      FAIR      61  24  23 NW5       29.99R                  
GAYLORD        FAIR      68  45  43 SW8       29.98S                  
GRAYLING       FAIR      70  34  26 S12       29.98R                  
HARBOR SPRINGS FAIR      66  24  20 E6        30.00R                  
HOUGHTON LAKE  FAIR      70  31  23 SE14      30.00S                  
MANISTEE       FAIR      71  35  26 S13G18    29.96R                  
OSCODA         FAIR      50  36  58 E6        30.06S                  
PELLSTON       FAIR      59  24  26 NE13      30.02R                  
ROGERS CITY    FAIR      56  25  29 E8        30.05S                  
TRAVERSE CITY  FAIR      54  35  48 N8        29.98R                  
$$
MIZ007>008-015-220000-
EASTERN UPPER MICHIGAN
  
CITY           SKY/WX    TMP DP  RH WIND       PRES   REMARKS
KINROSS        CLOUDY    56  24  29 E6        30.06R                  
MACKINAC ISLAN PTSUNNY   51  31  47 E12       30.04R                  
NEWBERRY       CLOUDY    50  33  51 CALM      30.06R                  
S. S. MARIE    CLOUDY    55  31  39 NE3       30.06R                  
MUNISING         N/A     35  33  92 N8        30.05R WCI  29          
$$
MIZ004>006-011>014-085-220000-
CENTRAL UPPER MICHIGAN
  
CITY           SKY/WX    TMP DP  RH WIND       PRES   REMARKS
MANISTIQUE     CLOUDY    47  22  36 E5        30.03S                  
ESCANABA       CLOUDY    52  39  61 NE7       30.02R                  
MENOMINEE      FAIR      55  31  39 E15       29.98S                  
SAWYER-GWINN   CLOUDY    41  32  70 NE10      30.03R                  
$$
MIZ001>003-009>011-084-220000-
WESTERN UPPER MICHIGAN
  
CITY           SKY/WX    TMP DP  RH WIND       PRES   REMARKS
IRON MOUNTAIN  PTSUNNY   54  32  43 NE7       29.99R                  
HOUGHTON       LGT RAIN  43  38  82 CALM      30.08R                  
COPPER HARBOR    N/A     38  36  92 CALM      30.09S                  
IRONWOOD       CLOUDY    43  40  89 E9        30.03S                  
$$

ABBREVIATIONS USED IN REMARKS
   TC - TEMPERATURE IN CELSIUS
  WCI - WIND CHILL INDEX
   HX - HEAT INDEX
  VSB - VISIBILITY